Location: Rimouski
(48.4330°N, 68.5170°W)
Time: 18:18:24
(UTC-04:00)

Daily predictions for brighter satellites

Satellite Brightness Start Highest point End
(mag) Time Altitude Azimuth Time Altitude Azimuth Time Altitude Azimuth
Cosmos 2233 Rocket 4.4 18:29:50 10° SSW 18:36:09 76° W 18:42:31 10° N
Spot 2 Rocket 4.1 18:34:38 10° SE 18:39:12 36° ENE 18:43:48 10° N
Cosmos 1603 4.2 18:36:06 10° S 18:41:23 39° ESE 18:46:42 10° NE
CZ-2C R/B 3.8 18:37:02 10° S 18:41:40 43° W 18:46:12 10° NNW
In-Cosmos 22 4.3 18:37:40 10° N 18:43:28 71° ENE 18:49:11 10° SSE
FREGAT/IRIS 3.2 18:41:54 10° SE 18:44:46 37° ENE 18:47:41 10° N
Meteor 1-24 Rocket 4.4 18:41:52 10° NNW 18:47:24 60° W 18:52:42 10° S
CZ-4C R/B 3.3 18:43:12 10° WSW 18:48:33 47° NW 18:54:39 10° NE
Meteor 1-22 Rocket 4.2 18:43:35 10° S 18:48:53 87° WNW 18:54:13 10° N
HJ-1C 4.0 18:50:52 10° SE 18:53:58 35° ENE 18:57:05 10° N
Cosmos 1674 3.5 18:51:34 10° N 18:55:06 32° ENE 18:58:37 10° SE
Helios 1B rocket 3.4 18:54:15 10° NE 18:57:45 26° E 19:01:13 10° SSE
Cosmos 1953 2.4 18:53:55 10° S 18:57:47 53° E 19:01:41 10° NNE
ATLAS 3B R/B 4.2 18:51:04 10° W 18:57:57 37° NNW 19:04:36 10° NE
Cosmos 1743 Rocket 3.8 18:54:08 10° N 18:58:29 49° ENE 19:02:45 10° SSE
Spot 1 4.2 18:54:55 10° SSE 18:59:22 55° ENE 19:03:37 10° N
Cosmos 2333 Rocket 4.1 18:56:32 10° WSW 19:01:38 31° NW 19:06:45 10° NNE
ATLAS 5 CENTAUR R/B 1.9 18:56:58 10° SW 19:01:50 84° SE 19:07:11 10° NE
Cosmos 1470 3.7 19:01:44 10° SSE 19:04:57 26° E 19:08:12 10° NNE
Resurs 1-3 3.9 19:03:04 10° SE 19:07:15 45° ENE 19:11:27 10° N
CZ-4B DEB 4.0 19:06:34 12° ESE 19:08:55 25° ENE 19:11:39 10° NNE
Meteor 2-12 Rocket 4.4 19:05:54 10° S 19:11:58 66° E 19:18:04 10° NNE
Cosmos 1544 3.2 19:09:43 10° S 19:13:22 53° E 19:17:03 10° NNE
SAR-Lupe-4 4.3 19:10:11 10° S 19:13:42 57° WSW 19:17:14 10° NNW
Cosmos 2237 Rocket 4.2 19:09:42 10° WSW 19:14:38 29° NW 19:19:34 10° NNE
Resurs 01 Rocket 1.6 19:13:12 10° SSE 19:17:38 72° ENE 19:22:05 10° N
ERS-1 Rocket 4.5 19:16:02 15° E 19:17:57 18° ENE 19:21:16 10° NNE
COSMO-SKYMED 1 3.4 19:13:44 10° N 19:18:00 55° WNW 19:22:14 10° SSW
Cosmos 2058 4.2 19:14:46 10° NNE 19:18:01 22° ENE 19:19:29 18° E
METEOR-M 4.1 19:12:51 10° SSE 19:18:12 84° ENE 19:23:36 10° NNW
Cosmos 482 Debris 4.2 19:19:50 10° WNW 19:21:53 36° N 19:23:24 20° ENE
USA 186 3.4 19:23:55 13° NE 19:23:55 13° NE 19:24:31 10° NNE
SL-8 R/B 4.1 19:18:30 10° SW 19:23:04 46° SSE 19:26:10 19° E
NOSS 3-2 (A) 4.0 19:17:40 10° SW 19:23:50 64° NW 19:30:40 10° NE
SJ-6B 3.7 19:21:06 10° S 19:25:03 54° W 19:29:07 10° NNW
Nadezhda 4 Rocket 4.0 19:18:54 10° N 19:25:13 84° E 19:31:26 10° S
ALOS 2.4 19:21:16 10° SE 19:25:47 51° ENE 19:30:19 10° N
FengYun 1-2 T 4.2 19:20:34 10° SSE 19:26:01 70° ENE 19:31:30 10° N
ASTEX 1 3.7 19:24:24 10° NNE 19:29:07 44° E 19:33:46 10° SSE
Cosmos 1110 Rocket 4.3 19:24:49 10° NNW 19:30:00 50° ENE 19:34:02 16° SE
Cosmos 2151 3.3 19:27:37 10° N 19:31:40 42° ENE 19:34:34 17° SE
ATLAS CENTAUR R/B 4.1 19:27:15 10° SW 19:33:11 85° SE 19:53:41 10° NE
GP-B 3.7 19:30:42 10° NNE 19:34:49 35° E 19:37:51 16° SE
Meteor 1-29 3.1 19:31:53 10° NNE 19:35:20 51° E 19:38:44 10° S
Cosmos 1092 Rocket 3.9 19:29:56 10° N 19:36:12 76° E 19:42:20 10° SSE
Cosmos 839 Rocket 4.3 19:28:58 10° NW 19:37:02 88° ENE 19:43:04 12° SE
SL-16 R/B 3.7 19:32:17 10° WSW 19:37:36 39° NW 19:42:56 10° NNE
Cosmos-2242 3.5 19:34:27 10° SSW 19:38:48 65° WNW 19:43:11 10° N
FENGYUN 3A 3.6 19:33:47 10° SSE 19:39:07 68° ENE 19:44:30 10° N
Cosmos 1805 Rocket 4.4 19:36:31 10° N 19:40:26 30° ENE 19:41:20 27° E
Cosmos 1437 Rocket 4.5 19:44:06 18° NE 19:44:06 18° NE 19:45:31 10° NE
H-2A R/B 4.1 19:43:10 13° NE 19:43:10 13° NE 19:44:59 10° NNE
Cosmos 1758 4.4 19:39:15 10° SSW 19:43:13 48° WNW 19:47:14 10° N
Cosmos 2221 3.5 19:45:07 27° ENE 19:45:07 27° ENE 19:48:18 10° NNE
Cosmos 2026 Rocket 4.1 19:40:03 10° N 19:46:02 53° ENE 19:51:17 14° SSE
CENTAUR R/B 2.6 19:40:27 10° SSW 19:46:24 56° ESE 19:53:09 10° NE
ISS -3.3 19:44:23 10° SW 19:47:35 56° SSE 19:48:06 48° ESE
Cosmos 1655 Rocket 4.1 19:44:15 10° N 19:50:21 52° ENE 19:54:54 18° SSE
Meteor 1-28 Rocket 4.5 19:47:29 10° N 19:51:02 43° WNW 19:54:34 10° SW
Cosmos 1633 Rocket 4.3 19:47:53 10° NNE 19:50:59 23° ENE 19:50:59 23° ENE
Abrixas 2.5 19:50:11 10° WSW 19:53:09 58° SSE 19:53:11 58° SSE
Cosmos 2251 Rocket 3.9 19:50:20 10° S 19:55:09 39° ESE 20:00:02 10° NE
Cosmos 1634 Rocket 3.9 19:50:47 10° S 19:56:56 66° E 20:03:04 10° NNE
Cosmos 1328 3.7 19:55:26 10° N 19:59:26 84° E 20:01:42 25° SSE
CZ-2D R/B 3.2 19:57:19 23° SSE 19:59:39 87° ENE 20:03:34 10° NNW
Cosmos 1943 Rocket 2.1 19:54:32 10° NNW 20:00:10 66° ENE 20:02:50 31° SE
Cosmos 1331 Rocket 3.9 19:55:00 10° NNW 20:00:20 76° ENE 20:03:18 27° SSE
SL-14 R/B 3.4 19:57:03 10° N 20:01:03 54° ENE 20:01:44 47° ESE
NOSS 3-2 (C) 4.5 19:59:00 10° WSW 20:05:04 49° NW 20:11:47 10° NE
ERBS 2.3 20:01:58 10° NW 20:05:28 77° SW 20:05:53 65° SSE
H-2A R/B 2.8 20:06:03 25° S 20:08:12 77° WSW 20:12:04 10° NNW
Aureole 3 4.4 20:02:25 10° N 20:08:16 43° ENE 20:09:09 40° E
Cosmos 2195 Rocket 4.4 20:02:10 10° N 20:08:33 85° E 20:14:54 10° S
Cosmos 2369 Rocket 3.0 20:05:56 10° NW 20:11:25 51° WSW 20:16:53 10° S
Cosmos 1842 Rocket 4.1 20:07:38 10° SSW 20:11:55 60° WNW 20:16:16 10° N
Cosmos 1302 Rocket 4.0 20:09:36 10° NNW 20:14:46 61° ENE 20:16:00 47° ESE
Cosmos 1943 3.1 20:11:12 10° SSW 20:16:50 89° WNW 20:22:30 10° NNE
YAOGAN 11 4.4 20:17:26 46° NE 20:17:26 46° NE 20:21:16 10° N
Cosmos 1939 Rocket 3.8 20:19:19 33° NNE 20:19:19 33° NNE 20:21:58 10° N
Cosmos 1666 Rocket 3.8 20:15:37 10° N 20:19:40 51° ENE 20:19:40 51° ENE
SJ-11-01 4.2 20:21:45 59° E 20:22:13 62° ENE 20:26:52 10° N
Cosmos 1733 4.4 20:24:48 10° SSW 20:28:30 43° WNW 20:32:12 10° N
USA 215 3.2 20:25:37 32° ENE 20:28:41 60° SE 20:35:07 10° SW
Envisat 3.0 20:28:39 56° E 20:28:52 56° ENE 20:33:51 10° N
Cosmos 158 Rocket 4.1 20:24:55 10° SSW 20:29:46 67° WNW 20:34:40 10° NNE
Gbstr 26 Del rocket 3.3 20:27:39 10° SW 20:32:19 73° SSE 20:32:54 66° ESE
Helios 1B rocket 4.2 20:29:24 10° N 20:33:07 33° WNW 20:36:49 10° SW
Cosmos 1174 4.2 20:30:52 10° SW 20:35:09 59° NW 20:35:32 55° NNW
CZ-4C R/B 4.4 20:34:02 10° WNW 20:38:43 23° N 20:43:53 10° NE
Cosmos 1703 4.5 20:41:47 10° N 20:44:10 36° N 20:44:10 36° N
ATLAS 5 CENTAUR R/B 3.8 20:42:52 10° W 20:47:12 27° NNW 20:51:53 10° NNE
Sich 1 3.5 20:45:08 10° N 20:48:36 55° N 20:48:36 55° N
Cosmos 2058 4.2 20:51:17 10° NNW 20:55:06 37° W 20:55:45 35° WSW
ERS-1 Rocket 2.9 20:56:03 77° WSW 20:56:09 78° WSW 21:01:13 10° NNW
H-2A R/B 4.0 20:59:00 18° NNE 20:59:00 18° NNE 21:00:56 10° N
Cosmos 1626 4.4 20:55:41 10° N 20:56:52 19° N 20:56:52 19° N
Cosmos 1656 Rocket 3.5 20:54:52 10° NNW 21:00:08 84° NNW 21:00:08 84° NNW
UNK 4.2 20:42:17 10° WNW 21:01:05 78° SSW 21:02:05 64° SE
Cosmos 2180 Rocket 4.4 21:00:27 43° SSW 21:02:36 84° W 21:08:48 10° N
SL-8 R/B 4.4 21:00:39 10° W 21:04:09 49° W 21:04:09 49° W
ARGOS 4.2 21:09:53 35° NNE 21:09:53 35° NNE 21:13:24 10° N
Cosmos 2279 Rocket 4.5 21:09:58 10° SSW 21:16:04 58° WNW 21:22:13 10° N
H-2A R/B 3.7 21:20:18 31° NNW 21:20:18 31° NNW 21:22:42 10° NNW
SPOT 5 4.4 21:21:34 28° NNW 21:21:34 28° NNW 21:23:39 10° NNW
Cosmos 2285 Rocket 4.4 21:13:16 10° NNW 21:18:33 50° NNE 21:18:33 50° NNE
Cosmos 2221 4.2 21:21:55 31° WNW 21:22:08 31° WNW 21:26:01 10° N
Cosmos 2266 Rocket 4.1 21:23:22 10° NNW 21:29:25 74° WNW 21:29:25 74° WNW
CENTAUR R/B 3.6 21:31:13 10° WSW 21:37:19 44° NNW 21:44:14 10° NE
Cosmos 1980 Rocket 4.2 21:37:41 10° N 21:40:28 19° NNE 21:40:28 19° NNE
Cosmos 1943 Rocket 4.0 21:39:11 10° NW 21:43:23 22° W 21:44:22 21° WSW
Terra 4.3 22:07:10 16° N 22:07:10 16° N 22:08:10 10° N
USA 215 3.9 22:13:01 51° WNW 22:13:01 51° WNW 22:18:08 10° W
CZ-4C R/B 4.3 22:24:17 10° NW 22:29:31 25° NNE 22:29:50 25° NNE
ATLAS 5 CENTAUR R/B 4.5 22:30:12 10° NW 22:33:45 17° N 22:34:05 17° N
H-2A R/B 4.4 22:39:39 19° NNW 22:39:39 19° NNW 22:41:10 10° NNW
ATLAS 3B R/B 4.1 22:37:32 10° NW 22:42:59 31° N 22:42:59 31° N
